When you browse on this site, cookies collect data to enhance your experience and personalize the content and advertising you see.
Visit our Privacy Policy to learn more. By continuing to use the site, you agree to this use of cookies and data.
  • In Portugal
  • List of Countries
  • For 7 days
  • Water Temperature
  • Weather Map
  • Weather Widgets
  • user-avatar
    Login

    Hourly Weather Priazovskoe

    Today, 26 May, Tuesday

    Time Temperature Precipitation Wind Pressure Humidity
    00:00 +13°C° 2.4 mm 3 mps 764 mmHg 88%
    01:00 +13°C° 2.4 mm 3 mps 764 mmHg 91%
    02:00 +13°C° 0 mm 4 mps 764 mmHg 94%
    03:00 +13°C° 1.6 mm 3 mps 764 mmHg 94%
    04:00 +13°C° 1.6 mm 3 mps 763 mmHg 93%
    05:00 +13°C° 1.6 mm 3 mps 763 mmHg 93%
    06:00 +13°C° 1.4 mm 4 mps 763 mmHg 93%
    07:00 +13°C° 1.4 mm 4 mps 764 mmHg 92%
    08:00 +13°C° 1.4 mm 4 mps 764 mmHg 92%
    09:00 +14°C° 0.3 mm 4 mps 764 mmHg 87%
    10:00 +16°C° 0.3 mm 3 mps 764 mmHg 83%
    11:00 +17°C° 0.3 mm 3 mps 764 mmHg 78%
    12:00 +18°C° 0.5 mm 3 mps 764 mmHg 72%
    13:00 +19°C° 0.5 mm 4 mps 763 mmHg 67%
    14:00 +20°C° 0.5 mm 4 mps 763 mmHg 61%
    15:00 +19°C° 0.1 mm 4 mps 763 mmHg 62%
    16:00 +19°C° 0.1 mm 4 mps 763 mmHg 63%
    17:00 +19°C° 0.1 mm 4 mps 763 mmHg 64%
    18:00 +18°C° 0 mm 4 mps 763 mmHg 69%
    19:00 +17°C° 0 mm 4 mps 763 mmHg 73%
    20:00 +15°C° 0 mm 4 mps 763 mmHg 78%
    21:00 +14°C° 0 mm 3 mps 763 mmHg 80%
    22:00 +15°C° 0 mm 2 mps 763 mmHg 82%
    23:00 +15°C° 0 mm 2 mps 763 mmHg 84%

    Tomorrow, 27 May, Wednesday

    Time Temperature Precipitation Wind Pressure Humidity
    00:00 +14°C° 0 mm 2 mps 763 mmHg 84%
    01:00 +14°C° 0 mm 2 mps 763 mmHg 84%
    02:00 +14°C° 0 mm 2 mps 763 mmHg 84%
    03:00 +14°C° 0.1 mm 2 mps 763 mmHg 85%
    04:00 +14°C° 0.1 mm 3 mps 763 mmHg 85%
    05:00 +14°C° 0.1 mm 3 mps 764 mmHg 86%
    06:00 +15°C° 0.2 mm 4 mps 764 mmHg 81%
    07:00 +17°C° 0.2 mm 4 mps 764 mmHg 77%
    08:00 +18°C° 0.2 mm 4 mps 764 mmHg 72%
    09:00 +18°C° 0 mm 4 mps 764 mmHg 70%
    10:00 +19°C° 0 mm 4 mps 764 mmHg 69%
    11:00 +19°C° 0 mm 4 mps 764 mmHg 67%
    12:00 +19°C° 0 mm 4 mps 764 mmHg 66%
    13:00 +20°C° 0 mm 4 mps 763 mmHg 66%
    14:00 +20°C° 0 mm 4 mps 763 mmHg 65%
    15:00 +20°C° 0 mm 4 mps 763 mmHg 66%
    16:00 +19°C° 0 mm 3 mps 763 mmHg 66%
    17:00 +19°C° 0 mm 3 mps 762 mmHg 66%
    18:00 +18°C° 0 mm 3 mps 762 mmHg 69%
    19:00 +18°C° 0 mm 3 mps 762 mmHg 73%
    20:00 +17°C° 0 mm 3 mps 762 mmHg 76%
    21:00 +17°C° 0.1 mm 4 mps 761 mmHg 78%
    22:00 +15°C° 0.1 mm 4 mps 761 mmHg 80%
    23:00 +15°C° 0.1 mm 5 mps 761 mmHg 82%

    Day after tomorrow, 28 May, Thursday

    Time Temperature Precipitation Wind Pressure Humidity
    00:00 +15°C° 0.1 mm 6 mps 761 mmHg 84%
    01:00 +14°C° 0.1 mm 6 mps 760 mmHg 86%
    02:00 +14°C° 0.1 mm 7 mps 759 mmHg 88%
    03:00 +14°C° 0.3 mm 6 mps 759 mmHg 90%
    04:00 +14°C° 0.3 mm 6 mps 759 mmHg 91%
    05:00 +14°C° 0.3 mm 5 mps 758 mmHg 93%
    06:00 +15°C° 0.3 mm 5 mps 758 mmHg 92%
    07:00 +17°C° 0.3 mm 4 mps 758 mmHg 90%
    08:00 +18°C° 0.3 mm 3 mps 758 mmHg 89%
    09:00 +19°C° 0.1 mm 3 mps 758 mmHg 87%
    10:00 +20°C° 0.1 mm 3 mps 758 mmHg 85%
    11:00 +20°C° 0.1 mm 2 mps 758 mmHg 82%
    12:00 +21°C° 0.1 mm 2 mps 758 mmHg 79%
    13:00 +23°C° 0.1 mm 2 mps 757 mmHg 75%
    14:00 +22°C° 0.1 mm 3 mps 757 mmHg 72%
    15:00 +22°C° 0.1 mm 3 mps 757 mmHg 70%
    16:00 +22°C° 0.1 mm 3 mps 757 mmHg 69%
    17:00 +23°C° 0.1 mm 4 mps 757 mmHg 68%
    18:00 +21°C° 0 mm 3 mps 757 mmHg 72%
    19:00 +20°C° 0 mm 3 mps 758 mmHg 75%
    20:00 +19°C° 0 mm 3 mps 758 mmHg 79%
    21:00 +18°C° 0 mm 3 mps 758 mmHg 81%
    22:00 +17°C° 0 mm 3 mps 758 mmHg 82%
    23:00 +17°C° 0 mm 3 mps 758 mmHg 83%

    29 May, Friday

    Time Temperature Precipitation Wind Pressure Humidity
    00:00 +16°C° 0 mm 3 mps 758 mmHg 84%
    01:00 +16°C° 0 mm 3 mps 757 mmHg 85%
    02:00 +16°C° 0 mm 3 mps 757 mmHg 86%
    03:00 +16°C° 0 mm 3 mps 757 mmHg 86%
    04:00 +16°C° 0 mm 2 mps 757 mmHg 86%
    05:00 +16°C° 0 mm 2 mps 757 mmHg 85%
    06:00 +17°C° 0 mm 2 mps 757 mmHg 78%
    07:00 +19°C° 0 mm 2 mps 757 mmHg 71%
    08:00 +20°C° 0 mm 2 mps 757 mmHg 64%
    09:00 +21°C° 0 mm 2 mps 757 mmHg 60%
    10:00 +23°C° 0 mm 2 mps 757 mmHg 56%
    11:00 +25°C° 0 mm 2 mps 757 mmHg 51%
    12:00 +24°C° 0 mm 2 mps 756 mmHg 53%
    13:00 +24°C° 0 mm 3 mps 756 mmHg 55%
    14:00 +24°C° 0 mm 3 mps 756 mmHg 57%
    15:00 +22°C° 0.3 mm 3 mps 756 mmHg 63%
    16:00 +21°C° 0.3 mm 3 mps 755 mmHg 69%
    17:00 +21°C° 0.3 mm 3 mps 755 mmHg 75%
    18:00 +20°C° 0.6 mm 3 mps 755 mmHg 79%
    19:00 +19°C° 0.6 mm 4 mps 755 mmHg 83%
    20:00 +18°C° 0.6 mm 4 mps 755 mmHg 87%
    21:00 +18°C° 0.4 mm 4 mps 754 mmHg 89%
    22:00 +17°C° 0.4 mm 4 mps 754 mmHg 92%
    23:00 +17°C° 0.4 mm 4 mps 754 mmHg 94%

    30 May, Saturday

    Time Temperature Precipitation Wind Pressure Humidity
    00:00 +16°C° 0.1 mm 5 mps 754 mmHg 94%
    01:00 +16°C° 0.1 mm 6 mps 753 mmHg 94%
    02:00 +15°C° 0.1 mm 7 mps 753 mmHg 94%
    03:00 +15°C° 0 mm 8 mps 753 mmHg 92%
    04:00 +15°C° 0 mm 8 mps 753 mmHg 90%
    05:00 +15°C° 0 mm 9 mps 752 mmHg 88%
    06:00 +16°C° 0 mm 8 mps 752 mmHg 85%
    07:00 +17°C° 0 mm 7 mps 752 mmHg 83%
    08:00 +17°C° 0 mm 7 mps 752 mmHg 80%
    09:00 +18°C° 0.2 mm 7 mps 753 mmHg 76%
    10:00 +20°C° 0.2 mm 6 mps 753 mmHg 72%
    11:00 +20°C° 0.2 mm 6 mps 753 mmHg 68%
    12:00 +20°C° 0.5 mm 8 mps 753 mmHg 71%
    13:00 +19°C° 0.5 mm 10 mps 754 mmHg 73%
    14:00 +19°C° 0.5 mm 11 mps 754 mmHg 76%
    15:00 +18°C° 0.3 mm 11 mps 755 mmHg 79%
    16:00 +17°C° 0.3 mm 11 mps 755 mmHg 82%
    17:00 +16°C° 0.3 mm 10 mps 756 mmHg 85%
    18:00 +16°C° 0.2 mm 10 mps 756 mmHg 85%
    19:00 +14°C° 0.2 mm 10 mps 757 mmHg 85%
    20:00 +15°C° 0.2 mm 9 mps 757 mmHg 86%
    21:00 +15°C° 0.1 mm 9 mps 758 mmHg 85%
    22:00 +15°C° 0.1 mm 9 mps 758 mmHg 84%
    23:00 +15°C° 0.1 mm 8 mps 759 mmHg 83%

    31 May, Sunday

    Time Temperature Precipitation Wind Pressure Humidity
    00:00 +15°C° 0 mm 8 mps 759 mmHg 84%
    01:00 +15°C° 0 mm 8 mps 759 mmHg 84%
    02:00 +13°C° 0 mm 8 mps 759 mmHg 85%
    03:00 +14°C° 0 mm 7 mps 759 mmHg 84%
    04:00 +14°C° 0 mm 7 mps 759 mmHg 83%
    05:00 +14°C° 0 mm 6 mps 759 mmHg 81%
    06:00 +15°C° 0 mm 7 mps 760 mmHg 75%
    07:00 +17°C° 0 mm 7 mps 760 mmHg 68%
    08:00 +18°C° 0 mm 7 mps 760 mmHg 61%
    09:00 +20°C° 0 mm 7 mps 760 mmHg 59%
    10:00 +21°C° 0 mm 7 mps 760 mmHg 57%
    11:00 +22°C° 0 mm 7 mps 760 mmHg 54%
    12:00 +22°C° 0 mm 7 mps 760 mmHg 53%
    13:00 +23°C° 0 mm 7 mps 760 mmHg 51%
    14:00 +23°C° 0 mm 7 mps 760 mmHg 50%
    15:00 +22°C° 0 mm 7 mps 760 mmHg 51%
    16:00 +22°C° 0 mm 7 mps 760 mmHg 52%
    17:00 +21°C° 0 mm 7 mps 760 mmHg 54%
    18:00 +20°C° 0 mm 6 mps 760 mmHg 57%
    19:00 +17°C° 0 mm 6 mps 760 mmHg 61%
    20:00 +16°C° 0 mm 5 mps 760 mmHg 65%
    21:00 +15°C° 0 mm 5 mps 760 mmHg 67%
    22:00 +15°C° 0 mm 5 mps 760 mmHg 69%
    23:00 +14°C° 0 mm 5 mps 761 mmHg 71%
    Show more